Weather History for KFKA - February, 2013

Change the Weather History Date:

Friday, February 22, 2013

  Actual Average (KRST) Record (KRST)
Temperature  
Mean Temperature 23 °F 23 °F  
Max Temperature 27 °F 30 °F 59 °F (1930)
Min Temperature 19 °F 15 °F -25 °F (1936)
Degree Days  
Heating Degree Days 42 42  
Month to date heating degree days 1006  
Since 1 July heating degree days 5614  
Cooling Degree Days 0 0  
Month to date cooling degree days 0  
Year to date cooling degree days 0  
Moisture  
Dew Point 19 °F    
Average Humidity 88    
Maximum Humidity 94    
Minimum Humidity 78    
Precipitation  
Precipitation 0.08 in 0.03 in 0.52 in (1913)
Month to date precipitation 0.61  
Year to date precipitation 1.47  
Snow  
Snow 0.00 in 0.30 in 8.00 in (1913)
Month to date snowfall 6.7  
Since 1 July snowfall 38.1  
Snow Depth -    
Sea Level Pressure  
Sea Level Pressure 29.84 in    
Wind  
Wind Speed 9 mph (North)    
Max Wind Speed 14 mph    
Max Gust Speed 23 mph    
Visibility 7 miles    
Events Rain , Snow    
T = Trace of Precipitation, MM = Missing Value Source: NWS Daily Summary

Daily Weather History Graph

Daily Weather History Graph

Search for Another Location

Airport or City:

Trip Planner

Search our weather history database for the weather conditions in past years. The results will help you decide how hot, cold, wet, or windy it might be!

Date:

Astronomy

Feb. 22, 2013 Rise Set
Actual Time 6:56 AM CST 5:48 PM CST
Civil Twilight 6:27 AM CST 6:17 PM CST
Nautical Twilight 5:53 AM CST 6:51 PM CST
Astronomical Twilight 5:20 AM CST 7:24 PM CST
Moon 2:56 PM CST (2/22) 4:45 AM CST (2/22)
Length of Visible Light 11h 50m
Length of Day
10h 52m
Waxing Gibbous, 90% of the Moon is Illuminated
Feb 22
Waxing Gibbous
Feb 25
Full
Mar 4
Last Quarter
Mar 11
New
Mar 19
First Quarter

Hourly Weather History & Observations

Time (CST) Temp. Windchill Dew Point Humidity Pressure Visibility Wind Dir Wind Speed Gust Speed Precip Events Conditions
12:09 AM 19.9 °F 6.7 °F 18.3 °F 93% 29.93 in 0.8 mi NE 13.8 mph 23.0 mph N/A Snow Snow
12:29 AM 20.3 °F 7.7 °F 18.5 °F 93% 29.92 in 0.8 mi NE 12.7 mph 20.7 mph 0.01 in Snow Snow
12:49 AM 20.3 °F 9.8 °F 18.9 °F 94% 29.92 in - ENE 9.2 mph 16.1 mph 0.03 in   Unknown
1:10 AM 20.8 °F 11.2 °F 19.2 °F 93% 29.91 in - NE 8.1 mph - 0.01 in   Mostly Cloudy
1:29 AM 20.8 °F 10.4 °F 19.2 °F 93% 29.90 in - ENE 9.2 mph - 0.02 in   Unknown
1:49 AM 21.0 °F 11.4 °F 19.4 °F 93% 29.90 in - NE 8.1 mph - 0.04 in   Unknown
2:10 AM 21.0 °F 9.9 °F 19.4 °F 93% 29.89 in - NE 10.4 mph - N/A   Unknown
2:29 AM 21.0 °F 11.4 °F 19.4 °F 93% 29.88 in - NE 8.1 mph - 0.01 in   Unknown
2:49 AM 21.0 °F 12.4 °F 19.4 °F 93% 29.87 in - NE 6.9 mph - 0.02 in   Unknown
3:10 AM 21.2 °F 11.7 °F 19.4 °F 93% 29.86 in - NE 8.1 mph - N/A   Unknown
3:29 AM 21.2 °F 11.7 °F 19.4 °F 93% 29.85 in - NE 8.1 mph - N/A   Unknown
3:49 AM 21.2 °F 11.7 °F 19.4 °F 93% 29.84 in - NE 8.1 mph - 0.01 in   Unknown
4:09 AM 21.2 °F 11.7 °F 19.4 °F 93% 29.84 in - NE 8.1 mph - N/A   Unknown
4:29 AM 21.2 °F 10.9 °F 19.4 °F 93% 29.83 in - NE 9.2 mph - N/A   Overcast
4:49 AM 21.2 °F 11.7 °F 19.4 °F 93% 29.82 in - NE 8.1 mph - N/A   Unknown
5:10 AM 21.2 °F 10.9 °F 19.4 °F 93% 29.82 in - NE 9.2 mph - N/A   Unknown
5:30 AM 21.2 °F 12.6 °F 19.2 °F 92% 29.82 in - ENE 6.9 mph - N/A   Unknown
6:09 AM 21.2 °F 11.7 °F 19.0 °F 91% 29.82 in - ENE 8.1 mph - N/A   Overcast
6:29 AM 21.2 °F 12.6 °F 18.9 °F 91% 29.81 in - ENE 6.9 mph - N/A   Overcast
6:50 AM 21.2 °F 13.6 °F 18.9 °F 91% 29.81 in - ENE 5.8 mph - N/A   Overcast
7:10 AM 21.2 °F 13.6 °F 19.0 °F 91% 29.82 in - NE 5.8 mph - N/A   Overcast
7:30 AM 21.2 °F 13.6 °F 19.0 °F 91% 29.82 in - NE 5.8 mph - N/A   Overcast
7:54 AM 21.2 °F 14.9 °F 19.2 °F 92% 29.82 in - NNE 4.6 mph - N/A   Unknown
8:14 AM 21.2 °F 12.6 °F 19.4 °F 93% 29.82 in - NNE 6.9 mph - 0.01 in   Unknown
8:34 AM 21.2 °F 12.6 °F 19.4 °F 93% 29.82 in - NNE 6.9 mph - 0.01 in   Unknown
8:53 AM 21.6 °F 12.1 °F 19.4 °F 91% 29.82 in 1.8 mi NNE 8.1 mph - 0.01 in Snow Light Snow
9:14 AM 21.9 °F 14.5 °F 19.8 °F 91% 29.82 in 1.2 mi NE 5.8 mph - N/A Snow Light Snow
9:33 AM 22.1 °F 14.7 °F 19.6 °F 90% 29.82 in 1.5 mi NE 5.8 mph - N/A Snow Light Snow
9:53 AM 22.5 °F 13.2 °F 19.8 °F 89% 29.81 in 1.5 mi NNE 8.1 mph - N/A Snow Light Snow
10:13 AM 22.8 °F 14.5 °F 19.9 °F 89% 29.81 in 2.0 mi NNE 6.9 mph - N/A Snow Light Snow
10:32 AM 23.0 °F 13.9 °F 19.8 °F 87% 29.81 in 2.0 mi NNE 8.1 mph - N/A Snow Light Snow
10:53 AM 23.4 °F 15.2 °F 20.1 °F 87% 29.81 in 2.0 mi NNE 6.9 mph - N/A Snow Light Snow
11:14 AM 24.1 °F 17.0 °F 20.3 °F 85% 29.80 in 2.5 mi NNE 5.8 mph - N/A   Overcast
11:34 AM 24.8 °F 16.9 °F 20.3 °F 83% 29.80 in 3.0 mi NNE 6.9 mph - N/A   Haze
11:54 AM 25.5 °F 17.8 °F 20.3 °F 81% 29.81 in 5.0 mi NE 6.9 mph - N/A   Haze
12:13 PM 25.7 °F 20.1 °F 20.1 °F 79% 29.81 in 5.0 mi North 4.6 mph - N/A   Haze
12:33 PM 25.7 °F 20.1 °F 20.3 °F 80% 29.82 in 5.0 mi NNW 4.6 mph - N/A   Haze
12:54 PM 26.4 °F 22.4 °F 20.3 °F 78% 29.81 in 3.0 mi NNW 3.5 mph - N/A Rain Light Freezing Rain
1:13 PM 26.2 °F 19.6 °F 21.0 °F 81% 29.81 in 1.8 mi North 5.8 mph - N/A Snow Light Snow
1:34 PM 26.1 °F 19.4 °F 21.0 °F 81% 29.80 in 1.2 mi NNW 5.8 mph - N/A Snow Light Snow
1:54 PM 26.8 °F 21.4 °F 20.7 °F 78% 29.80 in 2.5 mi North 4.6 mph - N/A Snow Light Snow
2:13 PM 27.0 °F 20.5 °F 20.8 °F 78% 29.80 in 2.0 mi NW 5.8 mph - N/A Snow Light Snow
2:34 PM 25.9 °F - 20.3 °F 79% 29.80 in 5.0 mi Calm Calm - N/A Snow Light Snow
2:54 PM 26.6 °F 20.0 °F 20.7 °F 78% 29.80 in 7.0 mi NNW 5.8 mph - N/A Snow Light Snow
3:13 PM 26.1 °F 19.4 °F 20.7 °F 80% 29.80 in 10.0 mi North 5.8 mph - N/A   Overcast
3:34 PM 25.7 °F 19.0 °F 20.8 °F 82% 29.81 in 10.0 mi NNW 5.8 mph - N/A   Overcast
3:53 PM 25.3 °F 17.6 °F 19.4 °F 78% 29.81 in 10.0 mi WNW 6.9 mph - N/A   Overcast
4:14 PM 24.8 °F 15.3 °F 19.4 °F 80% 29.82 in 10.0 mi NW 9.2 mph - N/A   Overcast
4:33 PM 24.8 °F 15.3 °F 19.6 °F 81% 29.82 in 10.0 mi NW 9.2 mph - N/A   Overcast
4:54 PM 24.6 °F 13.8 °F 20.1 °F 83% 29.82 in 10.0 mi West 11.5 mph - N/A   Overcast
5:13 PM 23.9 °F 13.5 °F 19.9 °F 85% 29.83 in 10.0 mi WNW 10.4 mph - N/A   Overcast
5:33 PM 23.9 °F 13.5 °F 19.4 °F 83% 29.84 in 7.0 mi WNW 10.4 mph - N/A   Overcast
5:53 PM 23.5 °F 12.4 °F 19.2 °F 84% 29.84 in 10.0 mi WNW 11.5 mph - N/A   Overcast
6:13 PM 23.4 °F 11.6 °F 19.0 °F 84% 29.84 in 10.0 mi NW 12.7 mph - N/A Snow Light Snow
6:33 PM 23.0 °F 11.7 °F 18.7 °F 84% 29.85 in 10.0 mi NW 11.5 mph - N/A   Overcast
6:53 PM 23.0 °F 13.9 °F 18.7 °F 84% 29.85 in 10.0 mi WNW 8.1 mph - N/A   Overcast
7:13 PM 22.8 °F 12.2 °F 18.9 °F 85% 29.86 in 10.0 mi WNW 10.4 mph - N/A   Overcast
7:33 PM 22.6 °F 12.6 °F 19.0 °F 86% 29.86 in 10.0 mi WNW 9.2 mph - N/A   Overcast
7:53 PM 22.6 °F 12.6 °F 19.0 °F 86% 29.86 in 10.0 mi West 9.2 mph - N/A Snow Light Snow
8:13 PM 22.5 °F 12.4 °F 19.0 °F 87% 29.86 in 10.0 mi West 9.2 mph - N/A Snow Light Snow
8:33 PM 22.1 °F 11.3 °F 19.0 °F 88% 29.86 in 10.0 mi West 10.4 mph - N/A Snow Light Snow
8:53 PM 21.9 °F 11.0 °F 18.9 °F 88% 29.86 in 10.0 mi WNW 10.4 mph - N/A Snow Light Snow
9:13 PM 21.7 °F 11.5 °F 18.9 °F 89% 29.86 in 10.0 mi West 9.2 mph - N/A Snow Light Snow
9:33 PM 21.2 °F 10.1 °F 18.5 °F 89% 29.86 in 10.0 mi WNW 10.4 mph - N/A Snow Light Snow
9:54 PM 21.2 °F 10.9 °F 18.5 °F 89% 29.85 in 10.0 mi WNW 9.2 mph - N/A Snow Light Snow
10:13 PM 20.7 °F 9.5 °F 18.0 °F 89% 29.85 in 7.0 mi West 10.4 mph - N/A Snow Light Snow
10:33 PM 20.3 °F 10.6 °F 17.6 °F 89% 29.85 in 10.0 mi West 8.1 mph - N/A Snow Light Snow
10:53 PM 20.1 °F 10.3 °F 17.6 °F 90% 29.85 in 10.0 mi West 8.1 mph - N/A Snow Light Snow
11:13 PM 19.8 °F 9.1 °F 17.4 °F 91% 29.85 in 10.0 mi West 9.2 mph - N/A Snow Light Snow
11:33 PM 19.8 °F 9.1 °F 17.6 °F 91% 29.85 in 10.0 mi West 9.2 mph - N/A Snow Light Snow
11:53 PM 19.8 °F 8.3 °F 17.6 °F 91% 29.85 in 10.0 mi West 10.4 mph - N/A Snow Light Snow